Weather in Gutersloh

Germany     51°54′16″N   8°22′38″E
temp.,
°C
wind,
m/s
gust,
m/s
humid.,
%
clouds,
%
prec.,
mm/h
press.,
hPa
HPBL,
m
15 april, thu
thu1523:00+1n259030 0.1 1030101
02:00−1nne11925 0.1 103013
05:00−1n11945 0.0 103010
08:00+1nne128814 0.0 1031137
11:00+6ne346598 0.0 1031978
14:00+9ne4541100 0.1 10302168
17:00+8nne454495 0.0 10291950
20:00+5nne376390 0.0 1029172
16 april, fri
fri1623:00+2nne258743 0.0 1029106
02:000nne258442 0.0 102984
05:00+1nne2776100 0.0 1029218
08:00+2nne3771100 0.0 1029249
11:00+7nne466052 0.0 1028829
14:00+10nne454898 0.0 10271673
17:00+10nne5647100 0.0 10261713
20:00+7nne496291 0.0 1026396
17 april, sat
sat1723:00+4ne386896 0.0 1027248
02:00+2nne257676 0.0 102798
05:00+1n228420 0.0 102618
08:00+3n247133 0.0 1026176
11:00+8n355294 0.0 1025763
14:00+9nne4560100 0.0 10241113
17:00+7ne4572100 0.0 1024688
20:00+5ne3682100 0.0 1025470
18 april, sun
sun1823:00+5ene1283100 0.0 102584
02:00+5nne1182100 0.0 102525
05:00+5n1385100 0.0 102497
08:00+6n1389100 0.0 1024155
11:00+9nne2378100 0.0 1025638
14:00+11nne127162 0.2 1024787
17:00+11nne3577100 1.4 1023634
20:00+9n388994 1.8 1024310
19 april, mon
mon1923:00+6n249621 0.0 102475
02:00+5n229399 0.0 102416
05:00+7n2497100 0.0 1023140
08:00+7nne269481 0.1 1023245
11:00+9ene2487100 0.1 1022439
14:00+13n126567 0.3 10211093
17:00+13nne236398 0.3 10201014
20:00+10ne257883 0.6 1019107